When you browse on this site, cookies collect data to enhance your experience and personalize the content and advertising you see.
Visit our Privacy Policy to learn more. By continuing to use the site, you agree to this use of cookies and data.

Hourly Weather Kasaevo

Today, 26 September, Saturday

Time Temperature Precipitation Wind Pressure Humidity
00:00 +10°C° 0 mm 1 mps 761 mmHg 75%
01:00 +10°C° 0 mm 1 mps 761 mmHg 76%
02:00 +9°C° 0 mm 1 mps 761 mmHg 77%
03:00 +9°C° 0 mm 1 mps 761 mmHg 78%
04:00 +9°C° 0 mm 1 mps 762 mmHg 78%
05:00 +9°C° 0 mm 1 mps 762 mmHg 78%
06:00 +9°C° 0 mm 1 mps 762 mmHg 78%
07:00 +9°C° 0 mm 1 mps 762 mmHg 77%
08:00 +11°C° 0 mm 1 mps 762 mmHg 72%
09:00 +12°C° 0 mm 1 mps 762 mmHg 66%
10:00 +14°C° 0 mm 2 mps 763 mmHg 60%
11:00 +15°C° 0 mm 2 mps 763 mmHg 56%
12:00 +16°C° 0 mm 2 mps 763 mmHg 52%
13:00 +17°C° 0 mm 2 mps 763 mmHg 48%
14:00 +17°C° 0 mm 2 mps 763 mmHg 48%
15:00 +17°C° 0 mm 2 mps 763 mmHg 49%
16:00 +18°C° 0 mm 1 mps 763 mmHg 50%
17:00 +16°C° 0 mm 1 mps 763 mmHg 55%
18:00 +14°C° 0 mm 1 mps 763 mmHg 60%
19:00 +13°C° 0 mm 1 mps 763 mmHg 64%
20:00 +12°C° 0 mm 1 mps 763 mmHg 66%
21:00 +12°C° 0 mm 1 mps 763 mmHg 68%
22:00 +11°C° 0 mm 1 mps 763 mmHg 69%
23:00 +11°C° 0 mm 1 mps 763 mmHg 70%

Tomorrow, 27 September, Sunday

Time Temperature Precipitation Wind Pressure Humidity
00:00 +11°C° 0 mm 1 mps 763 mmHg 72%
01:00 +10°C° 0 mm 1 mps 763 mmHg 73%
02:00 +10°C° 0 mm 1 mps 764 mmHg 74%
03:00 +10°C° 0 mm 1 mps 764 mmHg 75%
04:00 +10°C° 0 mm 1 mps 764 mmHg 76%
05:00 +10°C° 0 mm 1 mps 764 mmHg 77%
06:00 +9°C° 0 mm 1 mps 764 mmHg 77%
07:00 +9°C° 0 mm 1 mps 764 mmHg 78%
08:00 +11°C° 0 mm 1 mps 764 mmHg 73%
09:00 +12°C° 0 mm 1 mps 764 mmHg 67%
10:00 +14°C° 0 mm 1 mps 764 mmHg 61%
11:00 +15°C° 0 mm 1 mps 764 mmHg 58%
12:00 +16°C° 0 mm 1 mps 764 mmHg 55%
13:00 +16°C° 0 mm 1 mps 764 mmHg 52%
14:00 +18°C° 0 mm 1 mps 764 mmHg 53%
15:00 +18°C° 0 mm 1 mps 764 mmHg 54%
16:00 +18°C° 0 mm 1 mps 764 mmHg 55%
17:00 +15°C° 0 mm 1 mps 764 mmHg 59%
18:00 +14°C° 0 mm 1 mps 764 mmHg 62%
19:00 +12°C° 0 mm 1 mps 764 mmHg 66%
20:00 +12°C° 0 mm 1 mps 764 mmHg 68%
21:00 +11°C° 0 mm 1 mps 764 mmHg 69%
22:00 +11°C° 0 mm 1 mps 764 mmHg 70%
23:00 +10°C° 0 mm 1 mps 764 mmHg 72%

Day after tomorrow, 28 September, Monday

Time Temperature Precipitation Wind Pressure Humidity
00:00 +10°C° 0 mm 1 mps 764 mmHg 73%
01:00 +10°C° 0 mm 1 mps 764 mmHg 75%
02:00 +9°C° 0 mm 1 mps 764 mmHg 76%
03:00 +9°C° 0 mm 1 mps 764 mmHg 77%
04:00 +9°C° 0 mm 1 mps 764 mmHg 78%
05:00 +9°C° 0 mm 1 mps 764 mmHg 79%
06:00 +8°C° 0 mm 1 mps 764 mmHg 80%
07:00 +8°C° 0 mm 1 mps 764 mmHg 80%
08:00 +10°C° 0 mm 1 mps 764 mmHg 74%
09:00 +12°C° 0 mm 1 mps 764 mmHg 68%
10:00 +13°C° 0 mm 1 mps 764 mmHg 62%
11:00 +15°C° 0 mm 1 mps 764 mmHg 58%
12:00 +16°C° 0 mm 1 mps 764 mmHg 54%
13:00 +17°C° 0 mm 2 mps 765 mmHg 50%
14:00 +17°C° 0 mm 2 mps 764 mmHg 50%
15:00 +18°C° 0 mm 1 mps 764 mmHg 50%
16:00 +18°C° 0 mm 1 mps 764 mmHg 50%
17:00 +16°C° 0 mm 1 mps 764 mmHg 55%
18:00 +14°C° 0 mm 1 mps 764 mmHg 60%
19:00 +12°C° 0 mm 1 mps 764 mmHg 65%
20:00 +11°C° 0 mm 0 mps 765 mmHg 66%
21:00 +10°C° 0 mm 0 mps 765 mmHg 68%
22:00 +10°C° 0 mm 0 mps 765 mmHg 69%
23:00 +9°C° 0 mm 0 mps 765 mmHg 71%

29 September, Tuesday

Time Temperature Precipitation Wind Pressure Humidity
00:00 +9°C° 0 mm 0 mps 765 mmHg 72%
01:00 +9°C° 0 mm 0 mps 765 mmHg 74%
02:00 +8°C° 0 mm 0 mps 765 mmHg 75%
03:00 +8°C° 0 mm 0 mps 765 mmHg 77%
04:00 +8°C° 0 mm 0 mps 765 mmHg 78%
05:00 +8°C° 0 mm 0 mps 765 mmHg 78%
06:00 +8°C° 0 mm 0 mps 765 mmHg 78%
07:00 +8°C° 0 mm 0 mps 765 mmHg 78%
08:00 +9°C° 0 mm 0 mps 765 mmHg 72%
09:00 +11°C° 0 mm 0 mps 765 mmHg 67%
10:00 +13°C° 0 mm 0 mps 765 mmHg 61%
11:00 +14°C° 0 mm 0 mps 765 mmHg 57%
12:00 +15°C° 0 mm 0 mps 765 mmHg 54%
13:00 +16°C° 0 mm 0 mps 765 mmHg 50%
14:00 +16°C° 0 mm 0 mps 765 mmHg 50%
15:00 +16°C° 0 mm 0 mps 765 mmHg 50%
16:00 +16°C° 0 mm 0 mps 765 mmHg 50%
17:00 +15°C° 0 mm 0 mps 765 mmHg 55%
18:00 +13°C° 0 mm 0 mps 765 mmHg 61%
19:00 +11°C° 0 mm 0 mps 765 mmHg 66%
20:00 +11°C° 0 mm 0 mps 765 mmHg 68%
21:00 +11°C° 0 mm 0 mps 765 mmHg 69%
22:00 +10°C° 0 mm 0 mps 765 mmHg 71%
23:00 +10°C° 0 mm 0 mps 765 mmHg 72%

30 September, Wednesday

Time Temperature Precipitation Wind Pressure Humidity
00:00 +9°C° 0 mm 0 mps 764 mmHg 74%
01:00 +9°C° 0 mm 0 mps 764 mmHg 75%
02:00 +9°C° 0 mm 0 mps 764 mmHg 77%
03:00 +9°C° 0 mm 0 mps 764 mmHg 78%
04:00 +8°C° 0 mm 0 mps 764 mmHg 79%
05:00 +8°C° 0 mm 0 mps 764 mmHg 80%
06:00 +8°C° 0 mm 0 mps 764 mmHg 80%
07:00 +8°C° 0 mm 0 mps 764 mmHg 81%
08:00 +10°C° 0 mm 0 mps 764 mmHg 76%
09:00 +12°C° 0 mm 1 mps 764 mmHg 71%
10:00 +13°C° 0 mm 1 mps 764 mmHg 67%
11:00 +14°C° 0 mm 1 mps 764 mmHg 64%
12:00 +15°C° 0 mm 1 mps 764 mmHg 61%
13:00 +16°C° 0 mm 1 mps 764 mmHg 58%
14:00 +16°C° 0 mm 1 mps 764 mmHg 59%
15:00 +16°C° 0 mm 1 mps 764 mmHg 60%
16:00 +16°C° 0 mm 1 mps 764 mmHg 62%
17:00 +15°C° 0 mm 1 mps 763 mmHg 66%
18:00 +14°C° 0 mm 1 mps 763 mmHg 71%
19:00 +12°C° 0 mm 1 mps 763 mmHg 76%
20:00 +12°C° 0 mm 1 mps 763 mmHg 78%
21:00 +11°C° 0 mm 1 mps 763 mmHg 80%
22:00 +11°C° 0 mm 1 mps 763 mmHg 82%
23:00 +11°C° 0 mm 1 mps 764 mmHg 84%

1 October, Thursday

Time Temperature Precipitation Wind Pressure Humidity
00:00 +10°C° 0 mm 1 mps 764 mmHg 85%
01:00 +10°C° 0 mm 1 mps 764 mmHg 87%
02:00 +10°C° 0 mm 1 mps 764 mmHg 87%
03:00 +10°C° 0 mm 1 mps 764 mmHg 87%
04:00 +10°C° 0 mm 1 mps 763 mmHg 88%
05:00 +9°C° 0 mm 1 mps 764 mmHg 88%
06:00 +9°C° 0 mm 1 mps 764 mmHg 88%
07:00 +9°C° 0 mm 1 mps 764 mmHg 88%
08:00 +11°C° 0 mm 1 mps 764 mmHg 82%
09:00 +12°C° 0 mm 1 mps 764 mmHg 76%
10:00 +14°C° 0 mm 1 mps 764 mmHg 70%
11:00 +15°C° 0 mm 1 mps 764 mmHg 66%
12:00 +15°C° 0 mm 1 mps 764 mmHg 61%
13:00 +16°C° 0 mm 1 mps 763 mmHg 57%
14:00 +18°C° 0 mm 1 mps 763 mmHg 57%
15:00 +18°C° 0 mm 1 mps 763 mmHg 56%
16:00 +18°C° 0 mm 1 mps 763 mmHg 56%
17:00 +15°C° 0 mm 1 mps 763 mmHg 61%
18:00 +14°C° 0 mm 1 mps 763 mmHg 67%
19:00 +12°C° 0 mm 1 mps 763 mmHg 72%
20:00 +12°C° 0 mm 1 mps 763 mmHg 74%
21:00 +11°C° 0 mm 1 mps 763 mmHg 76%
22:00 +11°C° 0 mm 1 mps 763 mmHg 78%
23:00 +10°C° 0 mm 1 mps 763 mmHg 80%
Show more